Time,TemperatureF,DewpointF,PressureIn,WindDirection,WindDirectionDegrees,WindSpeedMPH,WindSpeedGustMPH,Humidity,HourlyPrecipIn,Conditions,Clouds,dailyrainin,SoftwareType,DateUTC
2013-08-01 00:13:00,61.9,59.9,29.96,West,270,0.0,-999.0,93,-99.99,,,0.00,Acu-Link.com,2013-08-01 04:13:00,
2013-08-01 00:28:00,61.5,59.5,29.96,West,270,0.0,-999.0,93,-99.99,,,0.00,Acu-Link.com,2013-08-01 04:28:00,
2013-08-01 00:44:00,61.2,59.2,29.95,NW,315,0.0,-999.0,93,-99.99,,,0.00,Acu-Link.com,2013-08-01 04:44:00,
2013-08-01 00:59:00,61.3,59.6,29.95,WSW,247,0.0,-999.0,94,-99.99,,,0.00,Acu-Link.com,2013-08-01 04:59:00,
2013-08-01 01:14:00,60.4,58.4,29.95,SW,225,0.0,-999.0,93,-99.99,,,0.00,Acu-Link.com,2013-08-01 05:14:00,
2013-08-01 01:30:00,60.6,59.2,29.95,NW,315,0.0,-999.0,95,-99.99,,,0.00,Acu-Link.com,2013-08-01 05:30:00,
2013-08-01 01:45:00,60.4,59.0,29.95,WNW,292,0.0,-999.0,95,-99.99,,,0.00,Acu-Link.com,2013-08-01 05:45:00,
2013-08-01 02:00:00,60.3,59.2,29.95,WSW,247,0.0,-999.0,96,-99.99,,,0.00,Acu-Link.com,2013-08-01 06:00:00,
2013-08-01 02:15:00,60.4,59.0,29.95,NNW,337,0.0,-999.0,95,-99.99,,,0.00,Acu-Link.com,2013-08-01 06:15:00,
2013-08-01 02:30:00,60.1,59.0,29.94,WSW,247,0.0,-999.0,96,-99.99,,,0.00,Acu-Link.com,2013-08-01 06:30:00,
2013-08-01 02:46:00,60.6,59.5,29.94,NW,315,0.0,-999.0,96,-99.99,,,0.00,Acu-Link.com,2013-08-01 06:46:00,
2013-08-01 03:01:00,61.0,59.6,29.93,SSW,202,0.0,-999.0,95,-99.99,,,0.00,Acu-Link.com,2013-08-01 07:01:00,
2013-08-01 03:16:00,60.3,58.6,29.93,NNW,337,0.0,-999.0,94,-99.99,,,0.00,Acu-Link.com,2013-08-01 07:16:00,
2013-08-01 03:31:00,60.1,58.7,29.92,WSW,247,0.0,-999.0,95,-99.99,,,0.00,Acu-Link.com,2013-08-01 07:31:00,
2013-08-01 03:46:00,59.7,58.3,29.92,SW,225,0.0,-999.0,95,-99.99,,,0.00,Acu-Link.com,2013-08-01 07:46:00,
2013-08-01 04:02:00,59.5,58.1,29.92,WNW,292,0.0,-999.0,95,-99.99,,,0.00,Acu-Link.com,2013-08-01 08:02:00,
2013-08-01 04:17:00,59.5,57.8,29.91,WSW,247,0.0,-999.0,94,-99.99,,,0.00,Acu-Link.com,2013-08-01 08:17:00,
2013-08-01 04:32:00,59.5,58.4,29.92,SW,225,0.0,-999.0,96,-99.99,,,0.00,Acu-Link.com,2013-08-01 08:32:00,
2013-08-01 05:33:00,58.6,56.9,29.91,NW,315,0.0,-999.0,94,-99.99,,,0.00,Acu-Link.com,2013-08-01 09:33:00,
2013-08-01 05:49:00,58.8,57.7,29.92,West,270,0.0,-999.0,96,-99.99,,,0.00,Acu-Link.com,2013-08-01 09:49:00,
2013-08-01 06:19:00,59.5,58.6,29.91,WNW,292,0.0,-999.0,97,-99.99,,,0.00,Acu-Link.com,2013-08-01 10:19:00,
2013-08-01 06:34:00,61.9,59.9,29.91,NW,315,1.1,-999.0,93,-99.99,,,0.00,Acu-Link.com,2013-08-01 10:34:00,
2013-08-01 07:05:00,64.4,61.7,29.92,NE,45,0.0,-999.0,91,-99.99,,,0.00,Acu-Link.com,2013-08-01 11:05:00,
2013-08-01 07:20:00,66.4,61.4,29.92,NNE,22,0.0,-999.0,84,-99.99,,,0.00,Acu-Link.com,2013-08-01 11:20:00,
2013-08-01 15:45:00,74.1,64.9,29.80,ESE,112,7.8,-999.0,73,-99.99,,,0.00,Acu-Link.com,2013-08-01 19:45:00,
2013-08-01 16:00:00,68.2,65.1,29.82,SSE,157,2.7,-999.0,90,-99.99,,,0.02,Acu-Link.com,2013-08-01 20:00:00,
2013-08-01 16:30:00,67.6,65.2,29.81,SSW,202,0.0,-999.0,92,-99.99,,,0.12,Acu-Link.com,2013-08-01 20:30:00,
2013-08-01 16:46:00,67.5,65.4,29.81,SSW,202,0.0,-999.0,93,-99.99,,,0.17,Acu-Link.com,2013-08-01 20:46:00,
2013-08-01 17:16:00,67.1,65.0,29.81,ESE,112,3.2,-999.0,93,-99.99,,,0.22,Acu-Link.com,2013-08-01 21:16:00,
2013-08-01 17:31:00,66.7,64.3,29.80,South,180,0.0,-999.0,92,-99.99,,,0.24,Acu-Link.com,2013-08-01 21:31:00,
2013-08-01 18:02:00,66.6,64.8,29.80,NNE,22,3.2,-999.0,94,-99.99,,,0.24,Acu-Link.com,2013-08-01 22:02:00,
2013-08-01 18:36:00,66.2,62.9,29.79,East,90,5.8,-999.0,89,-99.99,,,0.24,Acu-Link.com,2013-08-01 22:36:00,
2013-08-01 19:10:00,66.4,64.3,29.79,NNW,337,2.7,-999.0,93,-99.99,,,0.24,Acu-Link.com,2013-08-01 23:10:00,
2013-08-01 19:25:00,66.2,64.1,29.79,SW,225,4.2,-999.0,93,-99.99,,,0.24,Acu-Link.com,2013-08-01 23:25:00,
2013-08-01 19:56:00,66.0,64.5,29.78,NE,45,1.7,-999.0,95,-99.99,,,0.27,Acu-Link.com,2013-08-01 23:56:00,
2013-08-01 20:11:00,65.7,63.3,29.79,SE,135,1.1,-999.0,92,-99.99,,,0.27,Acu-Link.com,2013-08-02 00:11:00,
2013-08-01 20:42:00,64.9,62.8,29.79,ENE,67,1.1,-999.0,93,-99.99,,,0.27,Acu-Link.com,2013-08-02 00:42:00,
2013-08-01 20:57:00,64.9,62.5,29.79,WNW,292,0.0,-999.0,92,-99.99,,,0.27,Acu-Link.com,2013-08-02 00:57:00,
2013-08-01 21:12:00,64.9,62.5,29.78,SSE,157,0.0,-999.0,92,-99.99,,,0.27,Acu-Link.com,2013-08-02 01:12:00,
2013-08-01 21:27:00,64.9,62.8,29.79,NNE,22,0.0,-999.0,93,-99.99,,,0.28,Acu-Link.com,2013-08-02 01:27:00,
2013-08-01 21:42:00,64.8,63.0,29.78,SSW,202,2.2,-999.0,94,-99.99,,,0.28,Acu-Link.com,2013-08-02 01:42:00,
2013-08-01 21:58:00,64.6,62.8,29.78,West,270,0.0,-999.0,94,-99.99,,,0.29,Acu-Link.com,2013-08-02 01:58:00,
2013-08-01 22:13:00,64.6,62.5,29.78,South,180,2.2,-999.0,93,-99.99,,,0.29,Acu-Link.com,2013-08-02 02:13:00,
2013-08-01 22:28:00,64.6,62.8,29.78,NW,315,0.0,-999.0,94,-99.99,,,0.29,Acu-Link.com,2013-08-02 02:28:00,
2013-08-01 22:44:00,64.8,63.0,29.78,West,270,0.0,-999.0,94,-99.99,,,0.29,Acu-Link.com,2013-08-02 02:44:00,
2013-08-01 22:59:00,64.4,62.3,29.78,South,180,2.2,-999.0,93,-99.99,,,0.29,Acu-Link.com,2013-08-02 02:59:00,
2013-08-01 23:14:00,64.4,62.3,29.77,West,270,1.7,-999.0,93,-99.99,,,0.29,Acu-Link.com,2013-08-02 03:14:00,
2013-08-01 23:45:00,63.9,62.1,29.76,North,0,1.7,-999.0,94,-99.99,,,0.29,Acu-Link.com,2013-08-02 03:45:00,